Flag for Poland Weather past 2 weeks in Sosnowiec, Poland

Now
73 °F

Clear.


Feels Like: 77 °F
Forecast: 60 / 89 °F
Wind: 7 mph from South

Location: Katowice Airport

Current Time: Aug 27, 2015 at 9:55:46 PM

Latest Report: Aug 27, 2015 at 9:30 PM


Visibility: 10 mi

Pressure: 29.98 "Hg

Humidity: 57%

Dew point: 57 °F

Location of SosnowiecLocation

Historic Weather in Sosnowiec — Graph

°F

Sosnowiec temperature yesterday

Maximum temperature yesterday: 77 °F (at 4:00 PM)
Minimum temperature yesterday: 46 °F (at 5:00 AM)
Average temperature yesterday: 63 °F

Past Weeks' High & Low Weather Summary

 TemperatureHumidityPressure
High93 °F (Aug 15, 2:30 PM)100% (Aug 13, 3:30 AM)30.30 "Hg (Aug 13, 3:30 AM)
Low46 °F (Aug 22, 6:00 AM)25% (Aug 20, 3:00 PM)29.77 "Hg (Aug 15, 2:00 PM)
Average68 °F60%30.02 "Hg
* Reported Aug 12 9:00 PM — Aug 27 9:00 PM, Sosnowiec, Weather by CustomWeather, © 2015

Note: Actual official high and low records may vary slightly from our data, if they occured in-between our weather recording intervals... More about our weather records

Advertising

Sosnowiec weather history for previous 24 hours

 ConditionsComfort  
Time TempWeatherWind HumidityBarometerVisibility
9:00 PM
Thu, Aug 27
73 °FClear.7 mph57%29.98 "Hg10 mi
8:30 PM73 °FSunny.6 mph57%30.01 "Hg10 mi
8:00 PM77 °FSunny.6 mph51%29.98 "Hg10 mi
7:30 PM77 °FSunny.7 mph51%29.98 "Hg10 mi
7:00 PM81 °FSunny.10 mph42%29.98 "Hg10 mi
6:30 PM82 °FSunny.7 mph40%29.98 "Hg10 mi
6:00 PM82 °FSunny.9 mph40%29.98 "Hg10 mi
5:30 PM82 °FSunny.13 mph37%30.01 "Hg10 mi
5:00 PM82 °FSunny.15 mph35%30.01 "Hg10 mi
4:30 PM84 °FPassing clouds.10 mph33%30.01 "HgN/A
4:00 PM84 °FPassing clouds.13 mph33%30.01 "HgN/A
3:30 PM84 °FPassing clouds.10 mph35%29.98 "HgN/A
3:00 PM84 °FPassing clouds.13 mph35%30.01 "HgN/A
2:30 PM82 °FPassing clouds.14 mph37%30.01 "HgN/A
2:00 PM82 °FPassing clouds.15 mph37%30.04 "HgN/A
1:30 PM82 °FPassing clouds.15 mph37%30.04 "HgN/A
1:00 PM81 °FPassing clouds.15 mph37%30.04 "HgN/A
12:30 PM79 °FSunny.16 mph39%30.04 "Hg10 mi
12:00 PM79 °FSunny.15 mph39%30.04 "Hg10 mi
11:30 AM79 °FPassing clouds.14 mph39%30.04 "HgN/A
11:00 AM77 °FPassing clouds.12 mph39%30.07 "HgN/A
10:30 AM77 °FPassing clouds.10 mph36%30.07 "HgN/A
10:00 AM75 °FPassing clouds.8 mph41%30.07 "HgN/A
9:30 AM72 °FPassing clouds.10 mph44%30.07 "HgN/A
9:00 AM70 °FPassing clouds.6 mph53%30.07 "HgN/A
8:30 AM66 °FPassing clouds.6 mph64%30.07 "HgN/A
8:00 AM64 °FPassing clouds.6 mph68%30.07 "HgN/A
7:30 AM61 °FSunny.8 mph72%30.07 "Hg10 mi
7:00 AM59 °FSunny.7 mph77%30.07 "Hg10 mi
6:30 AM52 °FFog.2 mph94%30.07 "HgN/A
6:00 AM52 °FFog.6 mph88%30.07 "HgN/A
5:30 AM50 °FFog.2 mph94%30.07 "HgN/A
5:00 AM57 °FClear.5 mph82%30.07 "Hg10 mi
4:30 AM59 °FClear.7 mph77%30.07 "Hg10 mi
4:00 AM57 °FClear.5 mph77%30.07 "Hg10 mi
3:30 AM59 °FClear.8 mph77%30.07 "Hg10 mi
3:00 AM61 °FClear.10 mph72%30.07 "Hg10 mi
2:30 AM61 °FClear.9 mph72%30.07 "Hg10 mi
2:00 AM61 °FClear.7 mph72%30.09 "Hg10 mi
1:30 AM59 °FClear.7 mph77%30.09 "Hg10 mi
1:00 AM61 °FClear.8 mph72%30.09 "Hg10 mi
11:30 PM
Wed, Aug 26
63 °FClear.9 mph68%30.09 "Hg10 mi
11:00 PM57 °FClear.6 mph82%30.09 "Hg10 mi
10:30 PM57 °FPassing clouds.5 mph77%30.12 "HgN/A
10:00 PM64 °FClear.7 mph64%30.09 "Hg10 mi
9:30 PM64 °FClear.8 mph60%30.09 "Hg10 mi
9:00 PM64 °FClear.8 mph64%30.09 "Hg10 mi
Weather by CustomWeather, © 2015

See weather overviewHow to use our weather pages